Location: Cruquius
(52.3348°N, 4.6319°E)
Time: 19:31:40
(UTC+00:00)

Cosmos 1633 Rocket - Pass Details

Date: 12 May 2021
Orbit: 608 x 622 km, 82.5° (Epoch: 21 June)

Event Time Altitude Azimuth Distance (km) Brightness Sun altitude
Rises 20:47:55 0° 343° (NNW) 2,903 7.9 -10.3°
Reaches altitude 10° 20:50:16 10° 335° (NNW) 1,995 7.1 -10.5°
Maximum altitude 20:54:20 37° 268° (W) 965 4.4 -10.9°
Drops below altitude 10° 20:58:23 10° 201° (SSW) 1,987 5.4 -11.3°
Enters shadow 21:00:10 - 195° (SSW) 2,669 6.0 -11.5°
